Starlink 5497

operational
NORAD ID: 55629 Int'l Des: 2023-021 Owner: SPXS Country: US Constellation: starlink
LEOCIRCULAR

Starlink 5497について

説明を読み込み中...

リアルタイム位置

3D地球を読み込み中...

次回通過

高度履歴

Altitude vs Time

uPlot chart will show altitude changes over time

軌道要素

1 55629U 23021B 25258.03197605 -.00000042 00000-0 42676-5 0 9995
2 55629 69.9978 287.4629 0003111 269.1499 90.9303 14.98328277141989
Epoch: Sep 15, 2025 • Age: 13 hours

現在のステータス

高度 582.9 km
速度 7.57 km/s
衛星直下点 -33.46°S, 76.13°E
打ち上げ日 Feb 17, 2023
運用期間 2.5 years
タイプ internet

技術仕様

分類 Payload
質量 305.00 kg
乾燥質量 290.00 kg
総質量 305.00 kg
長さ 0.20 m
直径 2.80 m
スパン 9.00 m
形状 Box + pan
製造者 SPXS
バスタイプ Starlink
フェーズステータス In Orbit
所有者/国 SPXS/US

大規模コンステレーション

Loading constellations...